Volver al catálogo

PSLV DEB

ActivoSSO
NORAD 27152·DEBRIS·🇮🇳 India

Lanzado Oct 22, 2001 desde Satish Dhawan Space Centre

Loading…

Próximos Pases (próximas 24 horas)

TLE

ActualizadoSource: Space-Track

Época: Sep 14, 2026, 11:59 UTC

1 27152U 01049CY  26257.49936010  .00006399  00000-0  38286-3 0  9992
2 27152  97.9854 352.9192 0019509  59.2926 301.0222 15.11262216334466

Sigue PSLV DEB en tiempo real con AllMySat

Download on the App Store